Other Public Products
Issued by NWS Charleston, SC

Home | Current Version | Previous Version | Text Only | Print | Product List | Glossary On
Versions: 1 2 3 4 5 6 7 8 9 10 11 12 13 14 15 16 17 18 19 20 21 22 23 24 25 26 27 28 29 30 31 32 33 34 35 36 37 38 39 40 41 42 43 44 45 46 47 48 49 50
000
FPUS82 KCHS 230512
OPUCHS

TEST...KCHS/KSAV Gateway Observations...TEST
National Weather Service Charleston SC
100 AM EDT THU MAR 23 2017

NOTE: "fair" indicates few or no clouds below 12,000 feet with no
significant weather and/or obstructions to visibility.

SCZ050-WAZ558-NCZ071-TXZ119-213-PAZ071-DCZ001-FLZ074-172-MI076-
NYZ176-178-MAZ016-IL014-TNZ027-NJZ106-GAZ044-MD014-230600-

...Gateway Observations for Charleston International...

CITY           SKY/WX    TMP DP  RH WIND       PRES   REMARKS
Chas Airport   CLOUDY    55  47  74 E12       30.33R
Seattle        PTCLDY    44  38  79 S9        30.06R
Charlotte      CLEAR     48  19  31 NE8       30.40R
Dallas DFW     CLEAR     69  63  81 SE9       30.05F
Dallas Love    CLEAR     70  61  73 SE13      30.07F
Philladelphia  CLEAR     27  -1  30 N10       30.51R WCI  17
Wash National  PTCLDY    37   3  24 N14       30.50R WCI  28
Baltimore      CLEAR     32   4  30 N7        30.49R WCI  26
Miami          CLEAR     69  57  65 W3        30.13R
Detroit        PTCLDY    25  15  66 E5        30.55F WCI  19
Newark         CLEAR     24   0  35 NW9G18    30.48R WCI  14
Laguardia      CLEAR     26   3  37 NW16G26   30.47R WCI  14
J F K          CLEAR     24  -2  32 NW17G28   30.47R WCI  11
Boston Logan   CLEAR     18  -5  36 NW21G28   30.35R WCI   1
Ft. Lauderdale CLEAR     70  58  65 SW5       30.12R
Chicago O`Hare PTCLDY    31  20  63 NE3       30.48R
Chicago Midway PTCLDY    32  24  72 VRB6      30.48S WCI  26
Houston Bush   PTCLDY    70  65  84 S6        30.15S
Houston Hobby  PTCLDY    67  65  93 S5        30.15S
Nashville      CLOUDY    45  21  38 NE9       30.35F
Atlanta        PTCLDY    54  26  34 NE8       30.28R

$$

GAZ044-118-TXZ119-213-NCZ071-DCZ001-MDZ014-506-PAZ021-071-NJZ106-
NYZ176-178-MAZ106-OHZ011-021-055-MIZ076-KYZ091-ILZ014-INZ047-
MNZ060-ONZ431-230600-

...Gateway Observations for Savannah International...

CITY           SKY/WX    TMP DP  RH WIND       PRES   REMARKS
Savannah Arpt  PTCLDY    59  51  75 NE10      30.28R
Atlanta        PTCLDY    54  26  34 NE8       30.28R
Charlotte      CLEAR     48  19  31 NE8       30.40R
Dallas DFW     CLEAR     69  63  81 SE9       30.05F
Houston Bush   PTCLDY    70  65  84 S6        30.15S
Wash National  PTCLDY    37   3  24 N14       30.50R WCI  28
Wash Dulles    PTCLDY    34   5  29 N7        30.49R WCI  28
Baltimore      CLEAR     32   4  30 N7        30.49R WCI  26
Philadelphia   CLEAR     27  -1  30 N10       30.51R WCI  17
Newark         CLEAR     24   0  35 NW9G18    30.48R WCI  14
Laguardia      CLEAR     26   3  37 NW16G26   30.47R WCI  14
J F K          CLEAR     24  -2  32 NW17G28   30.47R WCI  11
Boston         CLEAR     18  -5  36 NW21G28   30.35R WCI   1
Pittsburg      CLEAR     24   9  52 N3        30.50R
Akron          CLEAR     21  11  65 NE6       30.51S WCI  13
Cleveland      CLEAR     24  13  62 CALM      30.57S
Cincinnati     PTCLDY    32  19  58 E10       30.46S WCI  24
Columbus       PTCLDY    26  17  69 NE9       30.51S WCI  17
Detroit        PTCLDY    25  15  66 E5        30.55F WCI  19
Chicago O`Hare PTCLDY    31  20  63 NE3       30.48R
Minneapolis    CLOUDY    37  15  40 SE13      30.27F WCI  29
Indianapolis   CLOUDY    32  20  61 E12       30.45F WCI  23
Toronto Canada CLEAR     19   9  63 NW8       30.53S WCI   9

$$




USA.gov is the U.S. government's official web portal to all federal, state and local government web resources and services.